DW6650 Weather Reports


Display with metric or nautical units.
time (UTC)temp
F
wind
direction
speed
MPH
gust
MPH
rain 1hr
in
rain 24hr
in
rain mn
in
humidity
%
barometer
mb
20260510202017 84 248 1.0 6.0 0.00 0.00 0.00 51 1016.2
20260510201516 83 248 1.0 5.0 0.00 0.00 0.00 51 1016.3
20260510201016 83 113 0.0 2.0 0.00 0.00 0.00 52 1016.2
20260510200516 83 248 1.0 5.0 0.00 0.00 0.00 52 1016.3
20260510200017 83 248 1.0 3.0 0.00 0.00 0.00 52 1016.4
20260510195516 83 225 0.0 2.0 0.00 0.00 0.00 54 1016.4
20260510195016 83 234 0.0 0.0 0.00 0.00 0.00 54 1016.4
20260510194536 83 225 1.0 6.0 0.00 0.00 0.00 53 1016.4
20260510194016 82 315 1.0 4.0 0.00 0.00 0.00 53 1016.4
20260510193516 82 225 1.0 3.0 0.00 0.00 0.00 56 1016.5
20260510193016 82 293 0.0 2.0 0.00 0.00 0.00 54 1016.5
20260510192516 82 270 0.0 2.0 0.00 0.00 0.00 56 1016.6
20260510192016 82 203 1.0 2.0 0.00 0.00 0.00 56 1016.6
20260510191516 82 225 1.0 3.0 0.00 0.00 0.00 56 1016.7
20260510191016 82 248 0.0 3.0 0.00 0.00 0.00 58 1016.7
20260510190516 81 248 0.0 2.0 0.00 0.00 0.00 61 1016.8
20260510190037 81 248 1.0 3.0 0.00 0.00 0.00 60 1016.8
20260510185516 81 225 1.0 2.0 0.00 0.00 0.00 60 1016.9
20260510185016 81 68 1.0 6.0 0.00 0.00 0.00 61 1016.8
20260510184516 81 203 0.0 2.0 0.00 0.00 0.00 59 1016.9
20260510184016 81 113 0.0 2.0 0.00 0.00 0.00 60 1017.0
20260510183516 81 203 1.0 2.0 0.00 0.00 0.00 57 1016.9
20260510183016 81 113 1.0 3.0 0.00 0.00 0.00 62 1017.0
20260510182516 81 248 0.0 2.0 0.00 0.00 0.00 62 1017.1
20260510182016 81 315 1.0 3.0 0.00 0.00 0.00 61 1017.1
20260510181516 80 90 2.0 5.0 0.00 0.00 0.00 63 1017.1
20260510181016 80 113 2.0 6.0 0.00 0.00 0.00 63 1017.2
20260510180516 80 113 0.0 2.0 0.00 0.00 0.00 62 1017.2
20260510180016 80 248 2.0 7.0 0.00 0.00 0.00 63 1017.2
20260510175516 80 248 0.0 3.0 0.00 0.00 0.00 64 1017.2
20260510175036 79 90 0.0 2.0 0.00 0.00 0.00 64 1017.3
20260510174516 79 23 0.0 2.0 0.00 0.00 0.00 61 1017.3
20260510174016 79 248 1.0 4.0 0.00 0.00 0.00 62 1017.5
20260510173516 78 248 1.0 3.0 0.00 0.00 0.00 63 1017.5
20260510173016 78 225 1.0 4.0 0.00 0.00 0.00 62 1017.5
20260510172517 78 225 1.0 4.0 0.00 0.00 0.00 65 1017.6
20260510172016 78 270 0.0 2.0 0.00 0.00 0.00 67 1017.7
20260510171516 78 248 0.0 2.0 0.00 0.00 0.00 65 1017.8
20260510171016 78 248 1.0 3.0 0.00 0.00 0.00 64 1017.9
20260510170516 78 270 1.0 5.0 0.00 0.00 0.00 63 1017.9
20260510170016 78 270 0.0 2.0 0.00 0.00 0.00 66 1018.0
20260510165516 78 248 1.0 4.0 0.00 0.00 0.00 66 1018.1
20260510165016 78 248 0.0 2.0 0.00 0.00 0.00 69 1018.1
20260510164536 77 248 0.0 2.0 0.00 0.00 0.00 70 1018.1
20260510164016 77 113 0.0 3.0 0.00 0.00 0.00 71 1018.1
20260510163516 77 113 1.0 3.0 0.00 0.00 0.00 69 1018.0
20260510163016 76 113 0.0 3.0 0.00 0.00 0.00 71 1018.2
20260510162516 76 248 0.0 2.0 0.00 0.00 0.00 71 1018.2
20260510162016 76 225 1.0 2.0 0.00 0.00 0.00 72 1018.2
20260510161516 76 248 1.0 3.0 0.00 0.00 0.00 73 1018.2
20260510161015 76 158 1.0 2.0 0.00 0.00 0.00 73 1018.2
20260510160516 76 68 0.0 1.0 0.00 0.00 0.00 75 1018.2
20260510160016 76 90 0.0 2.0 0.00 0.00 0.00 76 1018.3
20260510155516 75 68 0.0 2.0 0.00 0.00 0.00 76 1018.3
20260510155016 75 68 0.0 1.0 0.00 0.00 0.00 76 1018.4
20260510154516 75 68 0.0 1.0 0.00 0.00 0.00 77 1018.3
20260510154016 75 293 0.0 3.0 0.00 0.00 0.00 79 1018.2
20260510153516 75 146 0.0 0.0 0.00 0.00 0.00 78 1018.2
20260510153016 75 113 0.0 1.0 0.00 0.00 0.00 79 1018.3
20260510152516 74 270 0.0 2.0 0.00 0.00 0.00 79 1018.3
20260510152016 74 90 0.0 2.0 0.00 0.00 0.00 81 1018.4
20260510151538 73 242 0.0 0.0 0.00 0.00 0.00 81 1018.4
20260510151017 73 0 0.0 5.0 0.00 0.00 0.00 82 1018.3
20260510150558 72 113 1.0 5.0 0.00 0.00 0.00 83 1018.3
20260510150017 72 113 0.0 1.0 0.00 0.00 0.00 86 1018.3
20260510145518 71 118 0.0 0.0 0.00 0.00 0.00 86 1018.3
20260510144538 70 270 1.0 3.0 0.00 0.00 0.00 89 1018.1
20260510144017 69 248 2.0 4.0 0.00 0.00 0.00 91 1018.1
20260510143517 68 246 0.0 0.0 0.00 0.00 0.00 93 1018.0
20260510143017 67 246 0.0 0.0 0.00 0.00 0.00 94 1018.0
20260510142517 67 248 0.0 1.0 0.00 0.00 0.00 94 1018.0
20260510142057 67 0 0.0 1.0 0.00 0.00 0.00 95 1017.9
20260510141517 66 0 0.0 2.0 0.00 0.00 0.00 96 1017.9
20260510141017 66 270 0.0 2.0 0.00 0.00 0.00 96 1017.9
20260510140538 66 270 1.0 4.0 0.00 0.00 0.00 96 1018.0
20260510140017 66 270 0.0 1.0 0.00 0.00 0.00 97 1018.0
20260510135517 65 270 0.0 1.0 0.00 0.00 0.00 97 1018.0
20260510135017 65 270 0.0 3.0 0.00 0.00 0.00 97 1017.9
20260510134537 65 248 1.0 3.0 0.00 0.00 0.00 97 1017.9
20260510134057 65 270 1.0 3.0 0.00 0.00 0.00 97 1017.9
20260510133537 65 90 0.0 2.0 0.00 0.00 0.00 97 1017.9
20260510133037 65 0 0.0 2.0 0.00 0.00 0.00 97 1018.0
20260510132517 64 248 0.0 2.0 0.00 0.00 0.00 97 1017.9
20260510132017 64 248 0.0 1.0 0.00 0.00 0.00 97 1018.0
20260510131538 64 257 0.0 0.0 0.00 0.00 0.00 97 1018.0
20260510131017 64 248 0.0 1.0 0.00 0.00 0.00 97 1018.0
20260510130517 64 257 0.0 0.0 0.00 0.00 0.00 97 1018.0
20260510130017 63 257 0.0 0.0 0.00 0.00 0.00 97 1017.8
20260510125517 63 248 0.0 1.0 0.00 0.00 0.00 97 1017.9
20260510125037 63 248 0.0 1.0 0.00 0.00 0.00 97 1017.8
20260510124538 63 270 0.0 3.0 0.00 0.00 0.00 97 1017.8
20260510124037 63 293 0.0 2.0 0.00 0.00 0.00 97 1017.7
20260510123537 63 270 0.0 2.0 0.00 0.00 0.00 97 1017.8
20260510123037 63 267 0.0 0.0 0.00 0.00 0.00 97 1017.7
20260510122538 63 267 0.0 0.0 0.00 0.00 0.00 97 1017.7
20260510122017 62 267 0.0 0.0 0.00 0.00 0.00 97 1017.6
20260510121517 62 267 0.0 0.0 0.00 0.00 0.00 97 1017.6
20260510121037 62 270 1.0 2.0 0.00 0.00 0.00 97 1017.5
20260510120517 62 248 1.0 4.0 0.00 0.00 0.00 97 1017.4
20260510120017 62 253 0.0 0.0 0.00 0.00 0.00 97 1017.3
20260510115517 62 252 0.0 0.0 0.00 0.00 0.00 97 1017.1
20260510115017 62 270 0.0 1.0 0.00 0.00 0.00 97 1017.0
20260510114517 62 270 0.0 2.0 0.00 0.00 0.00 97 1017.0
20260510114017 62 248 1.0 3.0 0.00 0.00 0.00 97 1016.9
20260510113517 62 270 0.0 3.0 0.00 0.00 0.00 97 1016.8
20260510113017 62 270 0.0 2.0 0.00 0.00 0.00 97 1016.7
20260510112537 62 270 0.0 3.0 0.00 0.00 0.00 97 1016.6
20260510112037 62 270 0.0 2.0 0.00 0.00 0.00 96 1016.5
20260510111539 62 248 0.0 2.0 0.00 0.00 0.00 96 1016.6
20260510111037 62 270 1.0 4.0 0.00 0.00 0.00 96 1016.5
20260510110537 62 270 1.0 3.0 0.00 0.00 0.00 96 1016.4
20260510110017 62 270 0.0 0.0 0.00 0.00 0.00 96 1016.4
20260510105517 62 270 0.0 0.0 0.00 0.00 0.00 96 1016.3
20260510105037 62 270 0.0 0.0 0.00 0.00 0.00 96 1016.2
20260510104517 62 270 0.0 0.0 0.00 0.00 0.00 96 1016.1
20260510104037 62 270 0.0 0.0 0.00 0.00 0.00 96 1016.2
20260510103517 62 270 0.0 0.0 0.00 0.00 0.00 96 1016.1
20260510103037 62 270 0.0 0.0 0.00 0.00 0.00 96 1016.1
20260510102537 62 270 0.0 0.0 0.00 0.00 0.00 96 1016.1
20260510102017 62 270 0.0 0.0 0.00 0.00 0.00 96 1016.0
20260510101516 62 270 0.0 0.0 0.00 0.00 0.00 96 1015.9
20260510101016 62 270 0.0 0.0 0.00 0.00 0.00 96 1015.8
20260510100517 62 270 0.0 0.0 0.00 0.00 0.00 96 1015.8
20260510100016 62 270 0.0 1.0 0.00 0.00 0.00 97 1015.7
20260510095517 62 270 0.0 1.0 0.00 0.00 0.00 97 1015.7
20260510095017 62 270 0.0 0.0 0.00 0.00 0.00 97 1015.6
20260510094517 62 270 0.0 0.0 0.00 0.00 0.00 97 1015.5
20260510094016 62 270 0.0 0.0 0.00 0.00 0.00 97 1015.6
20260510093537 62 270 0.0 0.0 0.00 0.00 0.00 96 1015.6
20260510093037 62 270 0.0 0.0 0.00 0.00 0.00 96 1015.5
20260510092516 62 270 0.0 0.0 0.00 0.00 0.00 96 1015.4
20260510092016 62 270 0.0 0.0 0.00 0.00 0.00 96 1015.5
20260510091516 62 270 0.0 0.0 0.00 0.00 0.00 96 1015.4
20260510091016 62 270 0.0 0.0 0.00 0.00 0.00 96 1015.4
20260510090516 61 270 0.0 0.0 0.00 0.00 0.00 96 1015.4
20260510090017 61 270 0.0 0.0 0.00 0.00 0.00 95 1015.3
20260510085536 61 270 0.0 0.0 0.00 0.00 0.00 95 1015.2
20260510085037 62 270 0.0 0.0 0.00 0.00 0.00 95 1015.0
20260510084537 62 270 0.0 0.0 0.00 0.00 0.00 95 1014.9
20260510084037 62 270 0.0 0.0 0.00 0.00 0.00 96 1014.7
20260510083516 62 270 0.0 0.0 0.00 0.00 0.00 95 1014.8
20260510083036 62 270 0.0 0.0 0.00 0.00 0.00 95 1014.8
20260510082516 62 270 0.0 0.0 0.00 0.00 0.00 95 1014.7
20260510082036 62 270 0.0 0.0 0.00 0.00 0.00 95 1014.7
20260510081516 62 270 0.0 0.0 0.00 0.00 0.00 95 1014.6
20260510081036 62 270 0.0 0.0 0.00 0.00 0.00 95 1014.5
20260510080516 63 270 0.0 0.0 0.00 0.00 0.00 95 1014.5
20260510080036 63 270 0.0 0.0 0.00 0.00 0.00 95 1014.5
20260510075516 63 270 0.0 0.0 0.00 0.00 0.00 95 1014.6
20260510075016 63 270 0.0 0.0 0.00 0.00 0.00 96 1014.4
20260510074516 63 270 0.0 1.0 0.00 0.00 0.00 95 1014.4
20260510074016 63 270 0.0 0.0 0.00 0.00 0.00 95 1014.5
20260510073516 63 270 0.0 0.0 0.00 0.00 0.00 95 1014.5
20260510073016 63 270 0.0 0.0 0.00 0.00 0.00 95 1014.5
20260510072516 63 270 0.0 0.0 0.00 0.00 0.00 95 1014.4
20260510072016 63 270 0.0 0.0 0.00 0.00 0.00 95 1014.4
20260510071516 63 270 0.0 0.0 0.00 0.00 0.00 95 1014.4
20260510071016 63 270 0.0 0.0 0.00 0.00 0.00 95 1014.5
20260510070516 64 270 0.0 0.0 0.00 0.00 0.00 95 1014.6
20260510070016 64 270 0.0 0.0 0.00 0.00 0.00 95 1014.5
20260510065516 64 270 0.0 0.0 0.00 0.00 0.00 95 1014.4
20260510065016 64 270 0.0 0.0 0.00 0.00 0.00 95 1014.5
20260510064516 64 270 0.0 0.0 0.00 0.00 0.00 95 1014.4
20260510064016 64 270 0.0 0.0 0.00 0.00 0.00 95 1014.4
20260510063516 64 270 0.0 0.0 0.00 0.00 0.00 95 1014.4
20260510063016 64 270 0.0 0.0 0.00 0.00 0.00 95 1014.4
20260510062516 64 270 0.0 0.0 0.00 0.00 0.00 95 1014.4
20260510062016 64 270 0.0 0.0 0.00 0.00 0.00 95 1014.4
20260510061516 64 270 0.0 0.0 0.00 0.00 0.00 95 1014.4
20260510061038 64 270 0.0 0.0 0.00 0.00 0.00 95 1014.3
20260510060516 64 270 0.0 0.0 0.00 0.00 0.00 95 1014.3
20260510060016 64 270 0.0 0.0 0.00 0.00 0.00 95 1014.5
20260510055516 65 270 0.0 0.0 0.00 0.00 0.00 95 1014.5
20260510055016 65 270 0.0 0.0 0.00 0.00 0.00 95 1014.6
20260510054516 65 270 0.0 0.0 0.00 0.00 0.00 95 1014.8
20260510054056 65 270 0.0 0.0 0.00 0.00 0.00 95 1014.7
20260510053516 65 270 0.0 0.0 0.00 0.00 0.00 95 1014.7
20260510053016 65 270 0.0 0.0 0.00 0.00 0.00 95 1014.7
20260510052516 65 270 0.0 0.0 0.00 0.00 0.00 95 1014.7
20260510052016 65 270 0.0 0.0 0.00 0.00 0.00 95 1014.7
20260510051516 65 270 0.0 0.0 0.00 0.00 0.00 95 1014.7
20260510051016 65 270 0.0 0.0 0.00 0.00 0.00 95 1014.6
20260510050516 65 270 0.0 0.0 0.00 0.00 0.00 95 1014.6
20260510050016 65 270 0.0 1.0 0.00 0.00 0.00 95 1014.6
20260510045516 65 270 0.0 0.0 0.00 0.00 0.00 94 1014.5
20260510045016 65 270 0.0 0.0 0.00 0.00 0.00 95 1014.6
20260510044518 65 270 0.0 2.0 0.00 0.00 0.00 95 1014.6
20260510044016 65 270 0.0 1.0 0.00 0.00 0.00 95 1014.6
20260510043516 65 270 0.0 0.0 0.00 0.00 0.00 95 1014.6
20260510043015 65 270 0.0 0.0 0.00 0.00 0.00 95 1014.7
20260510042516 65 270 0.0 2.0 0.00 0.00 0.00 95 1014.8
20260510042015 65 270 0.0 2.0 0.00 0.00 0.00 95 1014.8
20260510041516 65 270 0.0 2.0 0.00 0.00 0.00 95 1014.8
20260510041036 65 270 0.0 0.0 0.00 0.00 0.00 95 1014.8
20260510040517 65 270 0.0 0.0 0.00 0.00 0.00 94 1014.9
20260510040016 65 270 0.0 0.0 0.00 0.00 0.00 94 1014.9
20260510035516 65 270 0.0 0.0 0.00 0.00 0.00 94 1014.9
20260510035016 65 270 0.0 0.0 0.00 0.00 0.00 94 1015.0
20260510034536 65 270 0.0 0.0 0.00 0.00 0.00 94 1015.1
20260510034016 65 270 0.0 1.0 0.00 0.00 0.00 95 1015.0
20260510033516 65 270 0.0 0.0 0.00 0.00 0.00 95 1015.0
20260510033016 66 270 0.0 1.0 0.00 0.00 0.00 95 1015.1
20260510032518 66 270 1.0 2.0 0.00 0.00 0.00 95 1015.1
20260510032036 65 270 0.0 1.0 0.00 0.00 0.00 95 1015.1
20260510031516 65 259 0.0 0.0 0.00 0.00 0.00 95 1015.1
20260510031016 65 259 0.0 0.0 0.00 0.00 0.00 94 1015.0
20260510030516 65 259 0.0 0.0 0.00 0.00 0.00 94 1015.0
20260510030016 65 270 0.0 1.0 0.00 0.00 0.00 94 1014.9
20260510025516 65 270 0.0 1.0 0.00 0.00 0.00 94 1014.8
20260510025016 65 259 0.0 0.0 0.00 0.00 0.00 93 1014.7
20260510024516 65 259 0.0 0.0 0.00 0.00 0.00 93 1014.7
20260510024016 65 259 0.0 0.0 0.00 0.00 0.00 93 1014.7
20260510023516 65 259 0.0 0.0 0.00 0.00 0.00 93 1014.7
20260510023016 65 259 0.0 0.0 0.00 0.00 0.00 93 1014.7
20260510022516 65 259 0.0 0.0 0.00 0.00 0.00 93 1014.7
20260510022016 65 259 0.0 0.0 0.00 0.00 0.00 93 1014.7
20260510021516 65 259 0.0 0.0 0.00 0.00 0.00 93 1014.6
20260510021016 66 259 0.0 0.0 0.00 0.00 0.00 92 1014.5
20260510020516 66 259 0.0 0.0 0.00 0.00 0.00 92 1014.6
20260510020016 66 259 0.0 0.0 0.00 0.00 0.00 92 1014.6
20260510015516 66 259 0.0 0.0 0.00 0.00 0.00 92 1014.6
20260510015016 66 259 0.0 0.0 0.00 0.00 0.00 92 1014.5
20260510014516 66 259 0.0 0.0 0.00 0.00 0.00 91 1014.5
20260510014016 66 259 0.0 0.0 0.00 0.00 0.00 91 1014.5
20260510013515 66 259 0.0 0.0 0.00 0.00 0.00 91 1014.4
20260510013016 66 259 0.0 0.0 0.00 0.00 0.00 91 1014.2
20260510012515 66 259 0.0 0.0 0.00 0.00 0.00 90 1014.2
20260510012016 67 259 0.0 0.0 0.00 0.00 0.00 90 1014.1
20260510011515 67 259 0.0 0.0 0.00 0.00 0.00 90 1014.1
20260510011015 67 259 0.0 0.0 0.00 0.00 0.00 89 1014.0
20260510010516 67 259 0.0 0.0 0.00 0.00 0.00 89 1014.0
20260510010016 67 259 0.0 0.0 0.00 0.00 0.00 89 1014.0
20260510005516 67 259 0.0 0.0 0.00 0.00 0.00 88 1014.0
20260510005016 68 259 0.0 0.0 0.00 0.00 0.00 88 1013.9
20260510004516 68 259 0.0 0.0 0.00 0.00 0.00 88 1013.7
20260510004016 68 259 0.0 0.0 0.00 0.00 0.00 87 1013.7
20260510003516 69 259 0.0 0.0 0.00 0.00 0.00 87 1013.8
20260510003038 69 259 0.0 0.0 0.00 0.00 0.00 86 1013.7
20260510002518 69 259 0.0 0.0 0.00 0.00 0.00 86 1013.6
20260510002017 69 259 0.0 0.0 0.00 0.00 0.00 85 1013.4
20260510001538 69 259 0.0 0.0 0.00 0.00 0.00 85 1013.4
20260510001017 70 259 0.0 0.0 0.00 0.00 0.00 85 1013.4
20260510000557 70 259 0.0 0.0 0.00 0.00 0.00 84 1013.4
20260510000017 70 259 0.0 0.0 0.00 0.00 0.00 83 1013.5
20260509235517 70 261 0.0 0.0 0.00 0.00 0.00 83 1013.4
20260509235037 70 261 0.0 0.0 0.00 0.00 0.00 82 1013.3
20260509234518 71 261 0.0 0.0 0.00 0.00 0.00 82 1013.3
20260509234017 71 261 0.0 0.0 0.00 0.00 0.00 82 1013.3
20260509233517 71 270 0.0 1.0 0.00 0.00 0.00 81 1013.1
20260509233057 71 261 0.0 0.0 0.00 0.00 0.00 81 1013.1
20260509232537 71 261 0.0 0.0 0.00 0.00 0.00 81 1013.1
20260509232017 71 261 0.0 0.0 0.00 0.00 0.00 81 1013.1
20260509231517 71 270 0.0 1.0 0.00 0.00 0.00 81 1013.0
20260509231017 71 270 0.0 1.0 0.00 0.00 0.00 81 1013.2
20260509230537 71 270 0.0 1.0 0.00 0.00 0.00 80 1013.2
20260509230037 72 219 0.0 0.0 0.00 0.00 0.00 80 1013.1
20260509225517 72 225 0.0 1.0 0.00 0.00 0.00 80 1013.1
20260509225058 72 225 0.0 2.0 0.00 0.00 0.00 79 1013.0
20260509224517 72 248 0.0 1.0 0.00 0.00 0.00 79 1012.9
20260509224017 72 248 0.0 2.0 0.00 0.00 0.00 79 1012.8
20260509223517 72 248 0.0 1.0 0.00 0.00 0.00 80 1012.7
20260509223057 72 213 0.0 0.0 0.00 0.00 0.00 79 1012.8
20260509222517 72 213 0.0 0.0 0.00 0.00 0.00 79 1012.9
20260509222017 72 225 0.0 1.0 0.00 0.00 0.00 79 1012.9
20260509221538 72 225 1.0 2.0 0.00 0.00 0.00 79 1012.8
20260509221118 72 225 0.0 2.0 0.00 0.00 0.00 80 1012.7
20260509220517 72 219 0.0 0.0 0.00 0.00 0.00 80 1012.6
20260509220017 72 225 0.0 1.0 0.00 0.00 0.00 80 1012.7
20260509215518 72 225 0.0 1.0 0.00 0.00 0.00 82 1012.8
20260509215017 72 225 0.0 2.0 0.00 0.00 0.00 81 1012.7
20260509214517 72 225 0.0 1.0 0.00 0.00 0.00 81 1012.6
20260509214017 72 225 0.0 1.0 0.00 0.00 0.00 81 1012.7
20260509213517 72 225 0.0 2.0 0.00 0.00 0.00 81 1012.7
20260509213017 72 203 0.0 2.0 0.00 0.00 0.00 81 1012.6
20260509212537 72 203 0.0 1.0 0.00 0.00 0.00 80 1012.6
20260509212017 72 203 0.0 2.0 0.00 0.00 0.00 80 1012.7
20260509211517 72 180 0.0 2.0 0.00 0.00 0.00 80 1012.8
20260509211018 72 158 0.0 1.0 0.00 0.00 0.00 81 1012.7
20260509210517 72 203 0.0 2.0 0.00 0.00 0.00 80 1012.7
20260509210017 73 203 0.0 2.0 0.00 0.00 0.00 80 1012.6
20260509205537 73 180 0.0 1.0 0.00 0.00 0.00 80 1012.5
20260509205037 73 180 0.0 1.0 0.00 0.00 0.00 80 1012.5
20260509204537 73 180 0.0 1.0 0.00 0.00 0.00 79 1012.4
20260509204017 73 180 0.0 1.0 0.00 0.00 0.00 79 1012.5
20260509203537 74 135 0.0 1.0 0.00 0.00 0.00 80 1012.6
20260509203017 74 203 0.0 1.0 0.00 0.00 0.00 79 1012.6
20260509202517 74 203 0.0 2.0 0.00 0.00 0.00 77 1012.6